KBAFKMRB

Guest
Details From KBAF - Barnes Muni
To KMRB - Eastern Wv Rgnl Shepherd Fld
Flight Number -
Tags Generated
Created
Modified
Stats Distance 292 nm / 540 km
Max Altitude 0 ft / 0 m
Waypoints 3
Social Downloads 3
Likes 0
Share VATSIM

Download

Looking for another format? Having issues loading an existing format? Contact us
Advertisement - Login to hide

Notes

Generated

Route

KBAF R2953 KMRB

ID Type Via Altitude Latitude Longitude Leg Dist Tot Dist Heading (true) Name
O KBAF APT - 0 ft / 0 m 42.16348˚ -72.72106˚ - 0 nm - BARNES MUNI
R2953 FIX - 0 ft / 0 m 39.40000˚ -77.99166˚ 291 nm 291 nm 237° / 234° -
O KMRB APT - 0 ft / 0 m 39.39833˚ -77.99775˚ 0 nm 291 nm 250° / 250° -

Altitude Profile

Advertisement - Login to hide

Weather


0- 5 10 15 20 25 30 35+ Temperature / ° C

Clouds and Precipitation
Forecast for 2018-05-27 18:00 UTC. Updated 3 hours ago

Ground ~20,000 ft ~40,000 ft Winds

KBAF

Details ICAO KBAF (BAF)
Name BARNES MUNI
Region United States
Timezone America/New_York (UTC-4.0)
Stats Elevation 271 ft / 83 m (AMSL)
Location 42.157830° -72.715514°
Runways 2
Magnetic Variation 13.857° W

METAR

KBAF 271953Z 03007KT 10SM -RA SCT013 OVC020 12/11 A3014 RMK AO2 SLP208 P0008 T01170111

Decode

TAF

TAF KBAF 271738Z 2718/2818 05008G17KT P6SM VCSH OVC012 FM272100 03007KT P6SM OVC012 FM280600 02005KT P6SM OVC010

Decode

Departure Runways

ID Width Length Bearing (true) Bearing (mag) Surface Threshold Offset Overrun Length
02 151 ft / 46 m 9,010 ft / 2,746 m 10.18° 24.04° Asphalt 0 ft / 0 m 610 ft / 186 m
15 102 ft / 31 m 5,005 ft / 1,525 m 140.31° 154.17° Asphalt 0 ft / 0 m 0 ft / 0 m
20 151 ft / 46 m 9,010 ft / 2,746 m 190.19° 204.05° Asphalt 0 ft / 0 m 1,001 ft / 305 m
33 102 ft / 31 m 5,005 ft / 1,525 m 320.32° 334.18° Asphalt 226 ft / 69 m 0 ft / 0 m

KMRB

Details ICAO KMRB (MRB)
Name Eastern Wv Rgnl Shepherd Fld
Region United States
Timezone America/New_York (UTC-4.0)
Stats Elevation 557 ft / 170 m (AMSL)
Location 39.401897° -77.984674°
Runways 1
Magnetic Variation 10.374° W

METAR

KMRB 272007Z AUTO 01012KT 9SM TS FEW037 FEW044 SCT100 24/21 A2992 RMK AO2 WSHFT 1947 LTG DSNT W-N T02390206 $

Decode

TAF

KMRB 271739Z 2718/2818 VRB03KT P6SM VCTS BKN040CB TEMPO 2719/2723 5SM -TSRA OVC050CB FM280600 VRB03KT P6SM OVC025 FM280900 VRB03KT 5SM BR BKN008

Decode

Destination Runways

ID Width Length Bearing (true) Bearing (mag) Surface Threshold Offset Overrun Length
08 151 ft / 46 m 7,823 ft / 2,384 m 70.57° 80.94° Asphalt 0 ft / 0 m 98 ft / 30 m
26 151 ft / 46 m 7,823 ft / 2,384 m 250.58° 260.95° Asphalt 0 ft / 0 m 374 ft / 114 m

Approach Navaids

Runway Type Ident Frequency Range Bearing (true) Bearing (mag) Slope Elevation
26 Localiser IEXW 108.30 MHz 18 nm / 33 km 250.57° 260.95° - 557 ft / 170 m (AMSL)
26 Glidescope IEXW 108.30 MHz 10 nm / 19 km 250.57° 260.95° 3.00° 545 ft / 166 m (AMSL)